FW9255 Weather Reports


time (UTC)temp
F
wind
direction
speed
knots
gust
knots
rain 1hr
in
rain 24hr
in
rain mn
in
humidity
%
barometer
mb
20260506111553 55 318 1.7 7.8 0.00 0.00 0.00 75 1013.8
20260506110055 55 15 2.6 11.3 0.00 0.00 0.00 75 1013.7
20260506104559 55 28 2.6 8.7 0.00 0.00 0.00 74 1013.4
20260506103057 55 360 1.7 7.8 0.00 0.00 0.00 75 1013.3
20260506101557 56 0 0.0 0.0 0.00 0.00 0.00 74 1012.9
20260506100054 56 0 0.0 0.0 0.00 0.00 0.00 74 1012.8
20260506094555 56 0 0.0 0.0 0.00 0.00 0.00 74 1012.6
20260506093053 56 0 0.0 0.0 0.00 0.00 0.00 74 1012.5
20260506091600 56 0 0.0 0.0 0.00 0.00 0.00 74 1012.5
20260506090104 56 0 0.0 0.0 0.00 0.00 0.00 74 1012.3
20260506084602 57 0 0.0 0.0 0.00 0.00 0.00 75 1012.0
20260506083058 57 0 0.0 0.0 0.00 0.00 0.00 75 1012.0
20260506081559 57 0 0.0 0.0 0.00 0.00 0.00 75 1011.8
20260506080105 57 0 0.0 0.0 0.00 0.00 0.00 75 1011.9
20260506073057 58 360 0.9 5.2 0.00 0.00 0.00 76 1011.2
20260506071604 58 0 1.7 6.1 0.00 0.00 0.00 77 1011.4
20260506061556 59 348 2.6 7.8 0.00 0.00 0.00 76 1011.4
20260506050104 60 336 2.6 7.0 0.00 0.00 0.00 78 1011.4
20260506044556 61 10 2.6 9.6 0.00 0.00 0.00 78 1011.4
20260506043100 61 341 2.6 9.6 0.00 0.00 0.00 77 1011.6
20260506041601 62 328 2.6 8.7 0.00 0.00 0.00 77 1011.4
20260506040058 62 333 2.6 8.7 0.00 0.00 0.00 77 1011.1
20260506034612 63 323 3.5 8.7 0.00 0.00 0.00 77 1010.9
20260506033059 63 5 2.6 7.8 0.00 0.00 0.00 77 1010.6
20260506031602 64 0 4.3 8.7 0.00 0.00 0.00 76 1010.3
20260506030055 65 28 2.6 7.8 0.00 0.00 0.00 76 1010.3
20260506024613 66 352 4.3 10.4 0.00 0.00 0.00 75 1010.1
20260506023054 67 321 2.6 7.0 0.00 0.00 0.00 75 1009.6
20260506021557 67 327 1.7 7.8 0.00 0.00 0.00 74 1008.8
20260506020057 68 360 1.7 9.6 0.00 0.00 0.00 74 1008.5
20260506014556 68 322 1.7 6.1 0.00 0.00 0.00 73 1008.3
20260506013109 68 347 1.7 7.0 0.00 0.00 0.00 72 1008.0
20260506011607 69 360 0.9 7.8 0.00 0.00 0.00 71 1008.1
20260506010057 70 9 2.6 8.7 0.00 0.00 0.00 70 1007.3
20260506004556 70 319 1.7 12.2 0.00 0.00 0.00 70 1007.5
20260506003058 71 36 2.6 9.6 0.00 0.00 0.00 68 1006.9
20260506001644 72 352 3.5 11.3 0.00 0.00 0.00 67 1006.6
20260506000058 73 309 3.5 13.0 0.00 0.00 0.00 66 1006.5
20260505234557 74 336 3.5 9.6 0.00 0.00 0.00 66 1006.5
20260505233056 76 352 2.6 10.4 0.00 0.00 0.00 64 1006.4
20260505231557 78 344 3.5 12.2 0.00 0.00 0.00 62 1006.1
20260505230106 80 32 2.6 10.4 0.00 0.00 0.00 62 1005.9
20260505224554 82 318 2.6 10.4 0.00 0.00 0.00 59 1005.5
20260505223108 83 326 3.5 8.7 0.00 0.00 0.00 56 1005.6
20260505221554 84 311 5.2 11.3 0.00 0.00 0.00 54 1005.2
20260505220059 86 311 2.6 9.6 0.00 0.00 0.00 51 1005.0
20260505214555 86 297 3.5 9.6 0.00 0.00 0.00 47 1004.9
20260505213059 88 338 3.5 11.3 0.00 0.00 0.00 46 1005.1
20260505211554 89 319 0.0 7.8 0.00 0.00 0.00 48 1004.8
20260505210124 90 291 0.0 5.2 0.00 0.00 0.00 53 1005.1
20260505204601 89 0 0.9 8.7 0.00 0.00 0.00 54 1005.2
20260505203100 88 299 0.0 7.8 0.00 0.00 0.00 57 1005.3
20260505201554 88 275 5.2 12.2 0.00 0.00 0.00 56 1005.4
20260505200054 88 0 0.0 9.6 0.00 0.00 0.00 57 1005.6
20260505194610 87 0 0.9 9.6 0.00 0.00 0.00 57 1005.7
20260505193054 87 0 2.6 11.3 0.00 0.00 0.00 59 1005.8
20260505191554 86 0 1.7 11.3 0.00 0.00 0.00 59 1005.5
20260505190053 85 192 0.0 8.7 0.00 0.00 0.00 65 1005.6
20260505184554 84 0 0.9 7.8 0.00 0.00 0.00 65 1005.6
20260505183101 84 128 1.7 9.6 0.00 0.00 0.00 65 1005.8
20260505181554 84 0 1.7 10.4 0.00 0.00 0.00 65 1005.7
20260505180054 83 0 2.6 10.4 0.00 0.00 0.00 64 1005.7
20260505174558 83 0 0.0 8.7 0.00 0.00 0.00 67 1005.7
20260505173056 81 272 0.9 13.9 0.00 0.00 0.00 68 1005.7
20260505171556 81 0 1.7 8.7 0.00 0.00 0.00 68 1005.8
20260505170058 80 203 1.7 7.8 0.00 0.00 0.00 70 1005.8
20260505164604 79 0 4.3 11.3 0.00 0.00 0.00 70 1006.0
20260505163108 79 0 0.0 8.7 0.00 0.00 0.00 73 1005.7
20260505161558 78 184 0.9 13.0 0.00 0.00 0.00 73 1005.6
20260505153114 77 158 2.6 10.4 0.00 0.00 0.00 74 1005.4
20260505151604 76 173 0.9 13.0 0.00 0.00 0.00 76 1005.3
20260505140108 73 0 0.0 6.1 0.00 0.00 0.00 81 1005.3
20260505124554 71 0 0.0 7.8 0.00 0.00 0.00 84 1005.1
20260505123106 71 207 0.0 4.3 0.00 0.00 0.00 84 1004.8
20260505121555 71 200 1.7 8.7 0.00 0.00 0.00 84 1004.5
20260505114558 71 182 2.6 8.7 0.00 0.00 0.00 84 1004.5
20260505113100 71 166 0.0 0.0 0.00 0.00 0.00 84 1004.5